Regional Weather Roundup
Issued by NWS

Home | Current Version | Previous Version | Graphics & Text | Print | Product List | Glossary On
Versions: 1 2 3 4 5 6 7 8 9 10 11 12 13 14 15 16 17 18 19 20 21 22 23 24 25 26 27 28 29 30 31 32 33 34 35 36 37 38 39 40 41 42 43 44 45 46 47 48 49 50
000
ASUS43 KLOT 300300
RWRIL

ILLINOIS REGIONAL WEATHER ROUNDUP
NATIONAL WEATHER SERVICE CHICAGO/ROMEOVILLE IL
1000 PM CDT MON JUN 29 2015

NOTE: "FAIR" INDICATES FEW OR NO CLOUDS BELOW 12,000 FEET WITH NO
SIGNIFICANT WEATHER AND/OR OBSTRUCTIONS TO VISIBILITY.

* THESE STATIONS ARE NOT UNDER NWS QUALITY CONTROL. THEY ALSO MAY NOT
  REPORT WEATHER SUCH AS PRECIPITATION OR FOG.

ILZ001-002-007-009-015-016-024-300400-
NORTHWEST ILLINOIS

CITY           SKY/WX    TMP DP  RH WIND       PRES   REMARKS
MOLINE         TSTM      67  62  84 NW28G46   29.84R
STERLING*      PTCLDY    68  64  88 W3        29.81R
$$

ILZ003-004-008-010-011-017-018-300400-
NORTH CENTRAL ILLINOIS

CITY           SKY/WX    TMP DP  RH WIND       PRES   REMARKS
ROCKFORD       MOCLDY    66  64  93 CALM      29.81R
$$

ILZ005-006-012>014-019>023-300400-
NORTHEAST ILLINOIS

CITY           SKY/WX    TMP DP  RH WIND       PRES   REMARKS
CHICAGO-OHARE  PTCLDY    66  64  93 SW3       29.80R
CHICAGO-MIDWAY PTCLDY    70  65  84 S3        29.80R
AURORA         CLEAR     66  62  87 CALM      29.81R
WAUKEGAN       CLEAR     62  61  96 SE3       29.80R FOG
DUPAGE AIRPORT CLEAR     64  62  93 CALM      29.80R
WHEELING       CLEAR     66  62  87 CALM      29.81R
NORTHERLY ISL    N/A     64  62  93 SE2         N/A
$$

LMZ740>746-300400-
SOUTHERN LAKE MICHIGAN

STATION/POSITION SKY/WX   TEMP    WIND        PRES    VSBY  WAVE
                          AIR SEA DIR/SP/G                  HT/PER
                          (F)     (DEG/KT/KT) (MB)    (MI)  (FT/S)
HARRISON CRIB              64     180/  4/  6   N/A
BURNHAM HARBOR             64     170/  2       N/A
CALUMET HARBOR             66     140/  2/  3   N/A
BURNS HARBOR               68      CALM  /  3 1009.5F
MICHIGAN CITY              68     100/  7/  8   N/A
MICHIGAN CITY 6N           67 66  160/  6/  6   N/A           0
ST. JOSEPH                 66 65                N/A           0
$$

ILZ025>027-034>036-040-047-049-050-058-095>099-300400-
WEST-CENTRAL ILLINOIS

CITY           SKY/WX    TMP DP  RH WIND       PRES   REMARKS
QUINCY         CLEAR     68  65  90 SW5       29.86R
MACOMB*        CLEAR     65  64  94 W5        29.85S
$$

ILZ028>032-037-038-041>044-048-051>054-059>061-300400-
CENTRAL ILLINOIS

CITY           SKY/WX    TMP DP  RH WIND       PRES   REMARKS
DECATUR        CLEAR     69  64  84 SW6       29.85R
PEORIA         MOCLDY    72  66  81 SW5       29.82R
SPRINGFIELD    CLEAR     70  67  90 SW5       29.84S
TAYLORVILLE    NOT AVBL
$$

ILZ033-039-045-046-055>057-062-063-300400-
EAST-CENTRAL ILLINOIS

CITY           SKY/WX    TMP DP  RH WIND       PRES   REMARKS
CHAMPAIGN      CLEAR     68  64  87 SW5       29.84R
MATTOON        CLEAR     69  65  86 SW3       29.85R
$$

ILZ079-100>102-300400-
SOUTHWEST ILLINOIS

CITY           SKY/WX    TMP DP  RH WIND       PRES   REMARKS
ALTON          CLOUDY    73  73 100 CALM      29.85S
BELLEVILLE     PTCLDY    74  69  83 W2        29.86R
CAHOKIA*       MOCLDY    72  68  87 CALM      29.87R
SPARTA*        MOCLDY    75  67  76 CALM      29.88R
$$

ILZ064>066-069>071-074>076-080>082-084>086-088>090-092>094-300400-
SOUTH-CENTRAL ILLINOIS

CITY           SKY/WX    TMP DP  RH WIND       PRES   REMARKS
CARBONDALE     PTCLDY    72  69  90 CALM      29.88R
MT. VERNON     CLOUDY    70  63  78 CALM      29.88R
SALEM*         CLOUDY    71  68  88 CALM      29.87R
$$

ILZ067-068-072-073-078-083-087-091-300400-
SOUTHEAST ILLINOIS

CITY           SKY/WX    TMP DP  RH WIND       PRES   REMARKS
LAWRENCEVILLE  MOCLDY    71  65  81 W5        29.86R
HARRISBURG*    PTCLDY    71  69  93 CALM      29.89R
$$

ABBREVIATIONS USED IN REMARKS
   TC - TEMPERATURE IN CELSIUS
  WCI - WIND CHILL INDEX
   HX - HEAT INDEX
  VSB - VISIBILITY
$$




USA.gov is the U.S. government's official web portal to all federal, state and local government web resources and services.